[[{"header":{"parameterUnit":"m.s-1","parameterCategory":1,"la1":30.2991,"la2":30.254,"lo1":-89.0895,"lo2":-89.0444,"dy":0.0017,"dx":0.0017,"nx":28,"ny":28,"refTime":"2025-12-31T09:00:00:Z","depth":0,"parameterNumber":2,"parameterNumberName":"U-component_of_WINDS"},"data":[0,0,0,0,0,0,0,0,0,0,0,0,0,0,0,0,0,0,0,0,0,0,0,0,0,0,0,0,0,0,0,0,0,0,0,0,0,0,0,0,0,0,0,0,0,0,0,0,0,0,0,0,0,0,0,0,0,0,5.0606,5.0609,0,5.0867,5.087,5.0873,5.0818,5.0813,5.0809,5.0804,5.1077,5.1088,5.11,0,0,0,0,0,0,0,0,0,0,0,0,0,5.0066,5.0076,5.0606,5.0609,5.0613,5.0866,5.087,5.0874,5.0819,5.0813,5.0807,5.0802,5.1073,5.1087,5.1101,0,0,0,0,0,0,0,0,0,0,0,0,0,5.0311,5.008,5.0606,5.0616,5.0619,5.0866,5.087,5.0874,5.082,5.0813,5.0806,5.0799,5.1068,5.1085,5.1103,5.1356,0,0,5.1157,5.1164,0,0,0,0,0,0,0,0,5.0297,5.0331,5.0611,5.0616,5.062,5.0802,5.0779,5.1036,5.0822,5.0744,5.0804,5.0796,5.0992,5.1015,5.108,5.1369,5.1381,5.1158,5.1169,5.1176,5.1181,0,0,0,0,0,0,0,5.028,5.032,5.0709,5.0615,5.0621,5.0609,5.0636,5.0828,5.0906,5.075,5.0747,5.0778,5.0993,5.1063,5.1086,5.1385,5.1158,5.1173,5.1184,5.1191,5.1895,5.1903,0,0,0,0,0,0,5.0259,5.0306,5.0701,5.0717,5.0437,5.0625,5.0655,5.0751,5.0903,5.0919,5.0784,5.0775,5.1037,5.1066,5.1095,5.1402,5.1176,5.1193,5.1203,5.1887,5.1897,5.1906,0,0,0,0,0,0,5.0247,5.0295,5.0691,5.0511,5.056,5.0642,5.0751,5.076,5.0831,5.0929,5.0943,5.0842,5.1032,5.1071,5.1292,5.1411,5.1201,5.1217,5.1878,5.189,5.1902,5.2018,0,0,0,0,0,0,5.0232,5.0291,5.0387,5.0513,5.057,5.0881,5.0758,5.0771,5.0861,5.0851,5.0986,5.1002,5.1029,5.1266,5.1309,5.1432,5.123,5.1867,5.1883,5.1898,5.2004,5.2033,5.2058,0,0,0,0,0,5.0213,5.0411,5.0392,5.044,5.0692,5.0888,5.0921,5.0947,5.087,5.0968,5.1031,5.0998,5.1391,5.1289,5.1337,5.1467,5.186,5.1879,5.1897,5.1992,5.2027,5.2057,0,0,0,0,0,0,5.0299,5.0428,5.0408,5.0652,5.076,5.0878,5.1003,5.0983,5.1116,5.1101,5.1129,5.116,5.1385,5.1448,5.1332,5.172,5.1615,5.1644,5.1671,5.1705,5.1731,5.1712,5.1245,0,0,0,0,0,5.0345,5.0493,5.0598,5.0803,5.0858,5.0921,5.1008,5.1018,5.1131,5.1177,5.1256,5.1368,5.1517,5.1615,5.1757,5.2013,5.2042,5.2126,5.2153,5.2174,5.2199,5.2339,5.2378,5.1966,5.1966,5.1966,0,0,5.0445,5.0533,5.0625,5.0823,5.0907,5.106,5.096,5.1126,5.1241,5.1203,5.1415,5.1478,5.1605,5.1844,5.1954,5.1904,5.2319,5.2198,5.2214,5.2227,5.2362,5.2401,5.2435,5.1979,5.1976,5.1974,0,0,5.0703,5.0785,5.0965,5.1051,5.1179,5.122,5.1263,5.1385,5.1424,5.1638,5.1612,5.175,5.2005,5.2097,5.2177,5.247,5.2444,5.2516,5.2656,5.2792,5.2824,5.2853,5.2957,5.2995,5.254,5.254,5.254,0,5.0811,5.1039,5.106,5.1229,5.1317,5.1288,5.1471,5.1554,5.1723,5.1785,5.1726,5.2045,5.2129,5.2389,5.2461,5.2527,5.2577,5.25,5.2817,5.2847,5.2874,5.2974,5.3013,5.2548,5.2547,5.2546,5.2546,0,5.1165,5.1324,5.1454,5.1615,5.1718,5.1893,5.1942,5.2044,5.2046,5.2093,5.2311,5.241,5.2572,5.2635,5.2639,5.2896,5.2861,5.281,5.2704,5.2921,5.3015,5.3053,5.2559,5.2556,5.2554,5.2552,0,0,5.1486,5.1656,5.1703,5.1776,5.1915,5.2039,5.2213,5.2369,5.2456,5.2573,5.272,5.2937,5.289,5.2981,5.2995,5.3115,5.334,5.3049,5.3052,5.3099,5.363,5.3667,5.3711,5.3323,5.3331,5.3337,5.3619,0,5.1757,5.2062,5.2086,5.2361,5.2508,5.2482,5.2634,5.2737,5.2786,5.2919,5.2973,5.3126,5.3053,5.3107,5.3224,5.3288,5.3447,5.3268,5.3462,5.3469,5.3431,5.3761,5.3802,5.4063,5.3656,5.3663,5.3667,0,5.2115,5.224,5.253,5.2647,5.271,5.2846,5.299,5.3118,5.3234,5.3261,5.3362,5.3359,5.354,5.3427,5.3677,5.3554,5.3635,5.3678,5.3689,5.3708,5.3581,5.3789,5.4147,5.4186,5.3726,5.3721,5.3717,0,5.2319,5.2562,5.2766,5.2829,5.2971,5.3067,5.3131,5.3239,5.3332,5.3459,5.3519,5.3666,5.3747,5.3862,5.39,5.3814,5.4148,5.4039,5.4177,5.4176,5.4248,5.4243,5.4624,5.4301,5.43,5.4299,5.4299,0,5.262,5.2798,5.2859,5.2985,5.3184,5.3211,5.3407,5.3466,5.3563,5.3701,5.3688,5.3818,5.3859,5.3997,5.4028,5.423,5.4267,5.4295,5.4301,5.4296,5.4293,5.435,5.4332,5.431,5.4308,5.4306,5.4304,0,5.2883,5.2931,5.3152,5.3267,5.33,5.3442,5.3542,5.3664,5.3709,5.3884,5.3927,5.4,5.4161,5.421,5.4405,5.4425,5.4662,5.4652,5.4622,5.4623,5.4758,5.4744,5.5189,5.5249,5.4886,5.4889,5.4892,0,5.3072,5.3208,5.3337,5.3427,5.3495,5.3641,5.3734,5.3765,5.3863,5.4005,5.411,5.4269,5.4397,5.4656,5.4728,5.4877,5.487,5.5016,5.4893,5.4883,5.4872,5.4864,5.4877,5.5039,5.5043,5.5046,5.5048,0,5.3402,5.3418,5.3552,5.3695,5.3806,5.392,5.403,5.4106,5.4153,5.4264,5.4427,5.4527,5.4724,5.4883,5.5033,5.5101,5.5084,5.5086,5.5126,5.5123,5.51,5.5114,5.4685,5.5076,5.5074,5.5072,5.507,5.5069,5.3633,5.3753,5.3862,5.4012,5.4097,5.42,5.432,5.438,5.4516,5.4678,5.4689,5.4866,5.4978,5.5179,5.5254,5.5394,5.5352,5.5409,5.5424,5.5438,5.5448,5.5077,5.5421,5.5421,5.542,5.5419,5.5419,0,5.3962,5.4031,5.4168,5.4321,5.4439,5.441,5.453,5.4631,5.4787,5.4892,5.5018,5.5206,5.5359,5.5442,5.5595,5.5691,5.5687,5.573,5.5723,5.5739,5.5478,5.5428,5.573,5.573,5.573,5.573,5.573,5.573,5.4147,5.4348,5.4377,5.462,5.4688,5.4859,5.493,5.5026,5.511,5.5319,5.5445,5.5497,5.5595,5.5754,5.5893,5.5914,5.5971,5.6019,5.6035,5.5789,5.5757,5.5727,5.568,5.6031,5.6032,5.6285,5.6287,5.6289]},{"header":{"parameterUnit":"m.s-1","parameterCategory":1,"la1":30.2991,"la2":30.254,"lo1":-89.0895,"lo2":-89.0444,"dy":0.0017,"dx":0.0017,"nx":28,"ny":28,"refTime":"2025-12-31T09:00:00:Z","depth":0,"parameterNumber":3,"parameterNumberName":"V-component_of_WINDS"},"data":[0,0,0,0,0,0,0,0,0,0,0,0,0,0,0,0,0,0,0,0,0,0,0,0,0,0,0,0,0,0,0,0,0,0,0,0,0,0,0,0,0,0,0,0,0,0,0,0,0,0,0,0,0,0,0,0,0,0,-0.6844,-0.6844,0,-0.6887,-0.6887,-0.6888,-0.6918,-0.6919,-0.6919,-0.6919,-0.6963,-0.6964,-0.6965,0,0,0,0,0,0,0,0,0,0,0,0,0,-0.6787,-0.6788,-0.6843,-0.6844,-0.6845,-0.6887,-0.6888,-0.6888,-0.6918,-0.6919,-0.6919,-0.6919,-0.6963,-0.6964,-0.6965,0,0,0,0,0,0,0,0,0,0,0,0,0,-0.6819,-0.6788,-0.6843,-0.6865,-0.6867,-0.6887,-0.6888,-0.6888,-0.6918,-0.6919,-0.6919,-0.6919,-0.6962,-0.6964,-0.6965,-0.6967,0,0,-0.697,-0.697,0,0,0,0,0,0,0,0,-0.6817,-0.6821,-0.6861,-0.6863,-0.6866,-0.6898,-0.6884,-0.6915,-0.6918,-0.6899,-0.6919,-0.692,-0.6941,-0.6944,-0.6952,-0.6969,-0.6971,-0.697,-0.6971,-0.6971,-0.6972,0,0,0,0,0,0,0,-0.6815,-0.6819,-0.6861,-0.6862,-0.6865,-0.6872,-0.6877,-0.689,-0.6917,-0.6901,-0.6903,-0.6908,-0.6942,-0.695,-0.6953,-0.6971,-0.697,-0.6971,-0.6972,-0.6972,-0.6993,-0.6993,0,0,0,0,0,0,-0.6809,-0.6817,-0.6859,-0.6862,-0.6842,-0.6873,-0.6879,-0.6887,-0.6917,-0.6922,-0.6907,-0.6909,-0.6948,-0.6951,-0.6955,-0.6959,-0.6971,-0.6973,-0.6973,-0.6994,-0.6993,-0.6993,0,0,0,0,0,0,-0.6808,-0.6813,-0.6858,-0.684,-0.6847,-0.6874,-0.6883,-0.6888,-0.6896,-0.6922,-0.6928,-0.691,-0.6948,-0.6953,-0.6964,-0.6961,-0.6973,-0.6974,-0.6994,-0.6993,-0.6993,-0.6967,0,0,0,0,0,0,-0.6806,-0.6812,-0.6813,-0.684,-0.6847,-0.6866,-0.6883,-0.6888,-0.6898,-0.6901,-0.6926,-0.6931,-0.6949,-0.6962,-0.6965,-0.6963,-0.6976,-0.6994,-0.6994,-0.6993,-0.6968,-0.6966,-0.6964,0,0,0,0,0,-0.6804,-0.6804,-0.6813,-0.6818,-0.6849,-0.6866,-0.687,-0.689,-0.6898,-0.6899,-0.6916,-0.693,-0.6961,-0.6962,-0.6967,-0.6965,-0.6995,-0.6994,-0.6993,-0.6969,-0.6966,-0.6964,0,0,0,0,0,0,-0.6775,-0.6807,-0.6818,-0.6826,-0.6843,-0.6871,-0.6873,-0.6886,-0.6901,-0.6903,-0.6927,-0.6933,-0.6942,-0.6955,-0.6956,-0.6969,-0.6979,-0.698,-0.696,-0.6957,-0.6955,-0.6951,-0.6977,0,0,0,0,0,-0.6769,-0.678,-0.6808,-0.6813,-0.6821,-0.6845,-0.6853,-0.6868,-0.6886,-0.6893,-0.6911,-0.6928,-0.6942,-0.695,-0.6964,-0.6971,-0.6977,-0.6972,-0.6969,-0.6967,-0.6967,-0.6972,-0.697,-0.6991,-0.6991,-0.6991,0,0,-0.6758,-0.6777,-0.6783,-0.6808,-0.6822,-0.6833,-0.6851,-0.6861,-0.687,-0.6895,-0.6906,-0.6921,-0.6941,-0.695,-0.6955,-0.6961,-0.6963,-0.6966,-0.6964,-0.6965,-0.6971,-0.6969,-0.6967,-0.699,-0.699,-0.699,0,0,-0.6743,-0.6759,-0.6765,-0.6779,-0.6801,-0.6818,-0.6819,-0.6845,-0.6855,-0.6868,-0.6887,-0.6897,-0.692,-0.6934,-0.6944,-0.6936,-0.6949,-0.694,-0.6927,-0.6932,-0.693,-0.6929,-0.6926,-0.6924,-0.6939,-0.6939,-0.6939,0,-0.6726,-0.6743,-0.6766,-0.6775,-0.6786,-0.6809,-0.6816,-0.6829,-0.6854,-0.6861,-0.6867,-0.6897,-0.6912,-0.6925,-0.6923,-0.6931,-0.6933,-0.6936,-0.6928,-0.6927,-0.6926,-0.6924,-0.6923,-0.6938,-0.6938,-0.6938,-0.6938,0,-0.6722,-0.6733,-0.6735,-0.676,-0.677,-0.6778,-0.6802,-0.681,-0.6824,-0.684,-0.6852,-0.6872,-0.6891,-0.6895,-0.6908,-0.691,-0.6913,-0.6924,-0.6935,-0.6923,-0.6921,-0.692,-0.6936,-0.6937,-0.6937,-0.6937,0,0,-0.6689,-0.6726,-0.6726,-0.6738,-0.6764,-0.6774,-0.6783,-0.6802,-0.6808,-0.6825,-0.6834,-0.6853,-0.6863,-0.6875,-0.689,-0.6894,-0.6886,-0.6904,-0.6905,-0.69,-0.689,-0.6882,-0.688,-0.6896,-0.6896,-0.6896,-0.6888,0,-0.6678,-0.6695,-0.6716,-0.6727,-0.6738,-0.6761,-0.6769,-0.6786,-0.6801,-0.6813,-0.683,-0.6844,-0.6856,-0.6863,-0.6868,-0.6886,-0.6885,-0.6887,-0.6904,-0.6904,-0.6898,-0.6879,-0.687,-0.6862,-0.6888,-0.6888,-0.6887,0,-0.6667,-0.6683,-0.6695,-0.6721,-0.6727,-0.6733,-0.6752,-0.6763,-0.6784,-0.6795,-0.6808,-0.6825,-0.6836,-0.6846,-0.6862,-0.6863,-0.6872,-0.6882,-0.6882,-0.6884,-0.6895,-0.6881,-0.686,-0.6859,-0.6886,-0.6887,-0.6887,0,-0.6642,-0.6667,-0.6677,-0.6686,-0.6717,-0.6721,-0.6734,-0.6755,-0.6765,-0.6782,-0.6789,-0.6806,-0.6816,-0.683,-0.6851,-0.6856,-0.6864,-0.6876,-0.6874,-0.6873,-0.6874,-0.6874,-0.6854,-0.688,-0.688,-0.688,-0.688,0,-0.6627,-0.6633,-0.6666,-0.6672,-0.668,-0.6704,-0.6711,-0.6727,-0.6745,-0.6755,-0.6776,-0.6785,-0.6812,-0.6825,-0.6841,-0.6852,-0.6856,-0.6866,-0.687,-0.6864,-0.6862,-0.6869,-0.687,-0.688,-0.688,-0.688,-0.688,0,-0.66,-0.6622,-0.6635,-0.6663,-0.6671,-0.6675,-0.67,-0.6707,-0.6724,-0.6736,-0.674,-0.6767,-0.6782,-0.6805,-0.6827,-0.6839,-0.6847,-0.6854,-0.684,-0.6843,-0.6839,-0.6839,-0.6823,-0.6822,-0.6848,-0.6848,-0.6847,0,-0.6589,-0.6594,-0.6624,-0.6632,-0.6644,-0.6657,-0.6668,-0.6692,-0.6702,-0.6726,-0.673,-0.6748,-0.6763,-0.6787,-0.6808,-0.6826,-0.6833,-0.6827,-0.6836,-0.683,-0.6833,-0.6833,-0.6833,-0.6824,-0.6824,-0.6823,-0.6823,0,-0.6567,-0.6578,-0.6592,-0.6611,-0.6623,-0.6638,-0.6655,-0.666,-0.6688,-0.6699,-0.6715,-0.6727,-0.675,-0.6767,-0.6788,-0.6802,-0.6817,-0.682,-0.682,-0.6814,-0.6805,-0.681,-0.6834,-0.682,-0.682,-0.6821,-0.6821,-0.6821,-0.6548,-0.6554,-0.6576,-0.6591,-0.6606,-0.6621,-0.663,-0.6648,-0.6662,-0.6683,-0.6696,-0.6712,-0.6733,-0.6763,-0.6776,-0.6789,-0.6795,-0.6795,-0.6796,-0.6795,-0.6793,-0.6804,-0.6792,-0.6793,-0.6793,-0.6793,-0.6793,0,-0.6527,-0.6542,-0.6556,-0.6579,-0.6591,-0.6605,-0.6625,-0.6634,-0.6648,-0.6666,-0.6681,-0.67,-0.6717,-0.674,-0.6759,-0.6764,-0.6772,-0.6769,-0.6768,-0.6771,-0.6786,-0.6784,-0.6762,-0.6762,-0.6762,-0.6762,-0.6762,-0.6762,-0.6518,-0.6529,-0.6542,-0.6561,-0.6577,-0.6592,-0.6602,-0.6617,-0.6632,-0.6652,-0.6666,-0.6681,-0.6702,-0.6722,-0.6739,-0.6745,-0.6751,-0.6745,-0.6754,-0.6767,-0.677,-0.6773,-0.6771,-0.6746,-0.6746,-0.6738,-0.6738,-0.6738]}]]